FIN927 EFHK-ENZV

Flight info

Callsign FIN927
Flight time 1h 41m
Altitude 38000
Route ADIVO Y365 POGOK DCT XIDMI DCT ROPNO
Aircraft A319/M-SDE1E2E3FGIM1RWXY/LB1

Departure

Time 2026-04-14 14:22
Airport Helsinki Vantaa Airport (EFHK)

Arrival

Time 2026-04-14 16:04
Airport Stavanger Airport, Sola (ENZV)
Time Latitude Longitude Altitude Speed Heading
2026-04-14 13:56 60.31707 24.97155 167 ft 0 kts 243°
2026-04-14 14:14 60.31713 24.97175 167 ft 4 kts 242°
2026-04-14 14:15 60.31725 24.97224 167 ft 4 kts 246°
2026-04-14 14:15 60.31732 24.97273 166 ft 4 kts 281°
2026-04-14 14:15 60.31723 24.97300 166 ft 4 kts 333°
2026-04-14 14:15 60.31714 24.97309 166 ft 0 kts 333°
2026-04-14 14:17 60.31718 24.97305 166 ft 2 kts 333°
2026-04-14 14:17 60.31751 24.97271 166 ft 8 kts 333°
2026-04-14 14:18 60.31821 24.97200 166 ft 14 kts 333°
2026-04-14 14:18 60.31926 24.97092 166 ft 20 kts 333°
2026-04-14 14:18 60.32050 24.96962 166 ft 20 kts 331°
2026-04-14 14:18 60.32176 24.96817 166 ft 21 kts 330°
2026-04-14 14:19 60.32253 24.96683 167 ft 10 kts 268°
2026-04-14 14:19 60.32200 24.96556 168 ft 15 kts 227°
2026-04-14 14:19 60.32110 24.96359 168 ft 23 kts 227°
2026-04-14 14:19 60.31993 24.96101 169 ft 26 kts 227°
2026-04-14 14:20 60.31873 24.95837 169 ft 26 kts 227°
2026-04-14 14:20 60.31751 24.95566 171 ft 26 kts 227°
2026-04-14 14:20 60.31628 24.95295 170 ft 27 kts 227°
2026-04-14 14:20 60.31500 24.95014 169 ft 28 kts 227°
2026-04-14 14:21 60.31408 24.94799 165 ft 12 kts 246°
2026-04-14 14:21 60.31444 24.94638 164 ft 14 kts 315°
2026-04-14 14:21 60.31520 24.94519 163 ft 10 kts 357°
2026-04-14 14:21 60.31539 24.94542 164 ft 1 kts 44°
2026-04-14 14:22 60.31612 24.94700 166 ft 51 kts 47°
2026-04-14 14:22 60.32034 24.95635 173 ft 127 kts 47°
2026-04-14 14:22 60.32751 24.97229 385 ft 165 kts 49°
2026-04-14 14:22 60.33508 24.98931 1203 ft 162 kts 50°
2026-04-14 14:23 60.34259 25.00611 2112 ft 160 kts 49°
2026-04-14 14:23 60.35022 25.02284 2844 ft 170 kts 50°
2026-04-14 14:23 60.35874 25.04159 3321 ft 192 kts 50°
2026-04-14 14:23 60.36828 25.06266 3801 ft 215 kts 49°
2026-04-14 14:24 60.37897 25.08628 4385 ft 240 kts 49°
2026-04-14 14:24 60.39070 25.11131 5335 ft 251 kts 43°
2026-04-14 14:24 60.40650 25.12729 6358 ft 263 kts 13°
2026-04-14 14:24 60.42502 25.12943 7419 ft 269 kts
2026-04-14 14:25 60.44392 25.12993 8460 ft 274 kts
2026-04-14 14:25 60.46316 25.13018 9493 ft 280 kts 359°
2026-04-14 14:25 60.48224 25.12034 10460 ft 291 kts 333°
2026-04-14 14:25 60.49768 25.09353 11346 ft 298 kts 306°
2026-04-14 14:26 60.50584 25.05474 12281 ft 304 kts 278°
2026-04-14 14:26 60.50674 25.01168 13179 ft 311 kts 270°
2026-04-14 14:26 60.50680 24.96612 13562 ft 334 kts 270°
2026-04-14 14:26 60.50675 24.91813 14274 ft 344 kts 268°
2026-04-14 14:27 60.50380 24.86964 15059 ft 349 kts 257°
2026-04-14 14:27 60.49628 24.82250 15851 ft 354 kts 246°
2026-04-14 14:27 60.48577 24.77705 16642 ft 358 kts 244°
2026-04-14 14:27 60.47502 24.73099 17423 ft 363 kts 244°
2026-04-14 14:28 60.46416 24.68446 18226 ft 367 kts 244°
2026-04-14 14:28 60.45315 24.63749 19009 ft 371 kts 244°
2026-04-14 14:28 60.44203 24.59001 19675 ft 375 kts 244°
2026-04-14 14:28 60.43079 24.54200 20359 ft 380 kts 244°
2026-04-14 14:29 60.41939 24.49341 21033 ft 384 kts 244°
2026-04-14 14:29 60.40782 24.44433 21695 ft 389 kts 244°
2026-04-14 14:29 60.39610 24.39465 22354 ft 394 kts 244°
2026-04-14 14:29 60.38424 24.34447 23005 ft 398 kts 244°
2026-04-14 14:30 60.37218 24.29362 23661 ft 403 kts 244°
2026-04-14 14:30 60.35998 24.24222 24263 ft 408 kts 244°
2026-04-14 14:30 60.34763 24.19033 24794 ft 411 kts 244°
2026-04-14 14:30 60.33517 24.13827 25407 ft 412 kts 244°
2026-04-14 14:31 60.32262 24.08610 25967 ft 415 kts 244°
2026-04-14 14:31 60.30997 24.03357 26497 ft 417 kts 244°
2026-04-14 14:31 60.29843 23.97979 27008 ft 420 kts 252°
2026-04-14 14:31 60.29104 23.92282 27514 ft 421 kts 259°
2026-04-14 14:32 60.28497 23.86493 28028 ft 424 kts 259°
2026-04-14 14:32 60.27879 23.80673 28550 ft 426 kts 259°
2026-04-14 14:32 60.27250 23.74821 29063 ft 428 kts 259°
2026-04-14 14:32 60.26611 23.68953 29558 ft 431 kts 259°
2026-04-14 14:33 60.25958 23.63046 30051 ft 433 kts 259°
2026-04-14 14:33 60.25295 23.57107 30523 ft 436 kts 259°
2026-04-14 14:33 60.24628 23.51144 30904 ft 438 kts 259°
2026-04-14 14:33 60.23955 23.45143 31263 ft 441 kts 259°
2026-04-14 14:34 60.22587 23.32974 31924 ft 446 kts 259°
2026-04-14 14:34 60.21898 23.26873 32261 ft 448 kts 259°
2026-04-14 14:34 60.21214 23.20841 32672 ft 448 kts 259°
2026-04-14 14:35 60.20518 23.14740 33137 ft 448 kts 259°
2026-04-14 14:35 60.19811 23.08570 33583 ft 447 kts 259°
2026-04-14 14:35 60.19120 23.02559 34036 ft 447 kts 259°
2026-04-14 14:35 60.18410 22.96408 34461 ft 447 kts 259°
2026-04-14 14:36 60.17704 22.90318 34815 ft 448 kts 259°
2026-04-14 14:36 60.16995 22.84228 35166 ft 448 kts 259°
2026-04-14 14:36 60.16284 22.78150 35514 ft 448 kts 259°
2026-04-14 14:36 60.15569 22.72069 35862 ft 447 kts 258°
2026-04-14 14:37 60.14848 22.65985 36202 ft 447 kts 258°
2026-04-14 14:37 60.14130 22.59925 36521 ft 447 kts 258°
2026-04-14 14:37 60.13411 22.53855 36835 ft 447 kts 258°
2026-04-14 14:37 60.12699 22.47869 37163 ft 446 kts 258°
2026-04-14 14:38 60.11967 22.41752 37538 ft 444 kts 257°
2026-04-14 14:38 60.11251 22.35816 37865 ft 443 kts 257°
2026-04-14 14:38 60.10523 22.29817 38175 ft 443 kts 257°
2026-04-14 14:38 60.09791 22.23820 38413 ft 444 kts 257°
2026-04-14 14:39 60.09055 22.17822 38471 ft 443 kts 257°
2026-04-14 14:39 60.07589 22.05874 38470 ft 441 kts 257°
2026-04-14 14:40 60.06117 21.93979 38474 ft 439 kts 257°
2026-04-14 14:40 60.04638 21.82136 38471 ft 438 kts 257°
2026-04-14 14:41 60.03150 21.70320 38463 ft 438 kts 256°
2026-04-14 14:41 60.01642 21.58512 38471 ft 438 kts 256°
2026-04-14 14:42 60.00125 21.46728 38476 ft 438 kts 256°
2026-04-14 14:42 59.99140 21.34778 38479 ft 436 kts 270°
2026-04-14 14:43 59.99240 21.22661 38479 ft 436 kts 271°
2026-04-14 14:43 59.99303 21.10541 38477 ft 436 kts 271°
2026-04-14 14:44 59.99341 20.98430 38472 ft 436 kts 271°
2026-04-14 14:44 59.99380 20.86320 38476 ft 436 kts 271°
2026-04-14 14:45 59.99413 20.74218 38476 ft 436 kts 271°
2026-04-14 14:45 59.99430 20.62111 38483 ft 435 kts 270°
2026-04-14 14:46 59.99439 20.50023 38480 ft 435 kts 270°
2026-04-14 14:46 59.99436 20.37928 38485 ft 435 kts 270°
2026-04-14 14:47 59.99422 20.25845 38494 ft 435 kts 270°
2026-04-14 14:47 59.99399 20.13761 38494 ft 435 kts 270°
2026-04-14 14:48 59.99366 20.01685 38500 ft 434 kts 270°
2026-04-14 14:48 59.99320 19.89623 38499 ft 434 kts 270°
2026-04-14 14:49 59.99264 19.77558 38499 ft 434 kts 270°
2026-04-14 14:49 59.99197 19.65501 38466 ft 434 kts 270°
2026-04-14 14:50 59.99117 19.53453 38470 ft 434 kts 269°
2026-04-14 14:50 59.99029 19.41410 38461 ft 434 kts 269°
2026-04-14 14:51 59.98944 19.31396 38465 ft 434 kts 269°
2026-04-14 14:51 59.98833 19.19346 38464 ft 434 kts 269°
2026-04-14 14:52 59.98691 19.05261 38458 ft 434 kts 269°
2026-04-14 14:52 59.98578 18.95265 38462 ft 434 kts 269°
2026-04-14 14:53 59.98436 18.83227 38446 ft 434 kts 268°
2026-04-14 14:53 59.98275 18.71187 38453 ft 433 kts 268°
2026-04-14 14:54 59.98112 18.59158 38453 ft 433 kts 268°
2026-04-14 14:54 59.97941 18.47137 38451 ft 433 kts 268°
2026-04-14 14:55 59.97754 18.35114 38452 ft 433 kts 268°
2026-04-14 14:55 59.97558 18.23089 38444 ft 433 kts 268°
2026-04-14 14:56 59.97239 18.05064 38425 ft 434 kts 268°
2026-04-14 14:56 59.97013 17.93015 38405 ft 435 kts 268°
2026-04-14 14:57 59.96779 17.80928 38398 ft 436 kts 268°
2026-04-14 14:57 59.96529 17.68832 38400 ft 436 kts 267°
2026-04-14 14:58 59.96267 17.56733 38401 ft 437 kts 267°
2026-04-14 14:58 59.95995 17.44626 38405 ft 437 kts 267°
2026-04-14 14:59 59.95714 17.32519 38412 ft 436 kts 267°
2026-04-14 14:59 59.95425 17.20429 38413 ft 436 kts 267°
2026-04-14 15:00 59.95121 17.08352 38407 ft 436 kts 267°
2026-04-14 15:00 59.94806 16.96284 38399 ft 435 kts 267°
2026-04-14 15:01 59.94483 16.84255 38412 ft 434 kts 267°
2026-04-14 15:01 59.94147 16.72253 38415 ft 433 kts 266°
2026-04-14 15:02 59.93801 16.60301 38416 ft 430 kts 266°
2026-04-14 15:02 59.93449 16.48416 38395 ft 429 kts 266°
2026-04-14 15:03 59.93088 16.36563 38391 ft 427 kts 266°
2026-04-14 15:03 59.92716 16.24749 38373 ft 427 kts 266°
2026-04-14 15:04 59.92331 16.12949 38376 ft 426 kts 265°
2026-04-14 15:04 59.91931 16.01167 38366 ft 426 kts 265°
2026-04-14 15:05 59.91528 15.89387 38371 ft 426 kts 264°
2026-04-14 15:05 59.91117 15.77624 38362 ft 425 kts 265°
2026-04-14 15:06 59.90695 15.65876 38350 ft 425 kts 264°
2026-04-14 15:06 59.90262 15.54153 38343 ft 425 kts 264°
2026-04-14 15:07 59.89819 15.42418 38331 ft 424 kts 264°
2026-04-14 15:07 59.89364 15.30703 38338 ft 424 kts 264°
2026-04-14 15:08 59.88900 15.18979 38313 ft 425 kts 263°
2026-04-14 15:08 59.88428 15.07248 38307 ft 425 kts 264°
2026-04-14 15:09 59.87940 14.95508 38303 ft 426 kts 263°
2026-04-14 15:09 59.87440 14.83776 38310 ft 425 kts 263°
2026-04-14 15:10 59.86934 14.72040 38306 ft 426 kts 263°
2026-04-14 15:10 59.86419 14.60302 38317 ft 426 kts 263°
2026-04-14 15:11 59.85895 14.48556 38296 ft 426 kts 263°
2026-04-14 15:11 59.85363 14.36802 38296 ft 427 kts 262°
2026-04-14 15:12 59.84810 14.25031 38282 ft 427 kts 262°
2026-04-14 15:12 59.84238 14.13275 38290 ft 427 kts 262°
2026-04-14 15:13 59.83664 14.01505 38284 ft 428 kts 262°
2026-04-14 15:13 59.83080 13.89736 38304 ft 428 kts 262°
2026-04-14 15:14 59.82491 13.77957 38288 ft 428 kts 262°
2026-04-14 15:14 59.81890 13.66181 38285 ft 429 kts 262°
2026-04-14 15:15 59.81272 13.54385 38282 ft 429 kts 262°
2026-04-14 15:15 59.80644 13.42596 38279 ft 429 kts 262°
2026-04-14 15:16 59.80009 13.30802 38279 ft 429 kts 262°
2026-04-14 15:16 59.79357 13.19022 38290 ft 429 kts 261°
2026-04-14 15:17 59.78695 13.07236 38280 ft 429 kts 261°
2026-04-14 15:17 59.78022 12.95469 38278 ft 429 kts 261°
2026-04-14 15:18 59.77345 12.83698 38270 ft 429 kts 261°
2026-04-14 15:18 59.76660 12.71942 38268 ft 429 kts 261°
2026-04-14 15:19 59.75960 12.60199 38262 ft 429 kts 261°
2026-04-14 15:19 59.75249 12.48447 38261 ft 429 kts 261°
2026-04-14 15:20 59.74525 12.36720 38261 ft 429 kts 261°
2026-04-14 15:20 59.73797 12.24987 38261 ft 429 kts 261°
2026-04-14 15:21 59.73057 12.13258 38255 ft 429 kts 260°
2026-04-14 15:21 59.72294 12.01545 38250 ft 429 kts 260°
2026-04-14 15:22 59.71656 11.91731 38250 ft 429 kts 261°
2026-04-14 15:22 59.70869 11.78085 38255 ft 429 kts 261°
2026-04-14 15:23 59.70223 11.66336 38248 ft 429 kts 261°
2026-04-14 15:23 59.69547 11.54502 38246 ft 429 kts 261°
2026-04-14 15:24 59.68841 11.42769 38241 ft 430 kts 261°
2026-04-14 15:24 59.68119 11.31024 38238 ft 430 kts 261°
2026-04-14 15:25 59.67397 11.19299 38241 ft 429 kts 261°
2026-04-14 15:25 59.66672 11.07591 38257 ft 429 kts 260°
2026-04-14 15:26 59.65935 10.95891 38253 ft 428 kts 260°
2026-04-14 15:26 59.65183 10.84219 38248 ft 428 kts 260°
2026-04-14 15:27 59.64427 10.72555 38246 ft 428 kts 260°
2026-04-14 15:27 59.63655 10.60896 38244 ft 428 kts 260°
2026-04-14 15:28 59.62874 10.49255 38240 ft 427 kts 260°
2026-04-14 15:28 59.62085 10.37617 38251 ft 427 kts 260°
2026-04-14 15:29 59.61289 10.25996 38246 ft 427 kts 260°
2026-04-14 15:29 59.60479 10.14375 38244 ft 427 kts 259°
2026-04-14 15:30 59.59653 10.02765 38246 ft 427 kts 259°
2026-04-14 15:30 59.58823 9.91157 38243 ft 427 kts 259°
2026-04-14 15:31 59.58130 9.81529 38247 ft 427 kts 259°
2026-04-14 15:31 59.57287 9.69919 38239 ft 427 kts 259°
2026-04-14 15:32 59.56430 9.58324 38233 ft 428 kts 259°
2026-04-14 15:32 59.55557 9.46719 38238 ft 428 kts 259°
2026-04-14 15:33 59.54674 9.35104 38260 ft 428 kts 259°
2026-04-14 15:33 59.53782 9.23501 38277 ft 428 kts 259°
2026-04-14 15:34 59.52880 9.11889 38295 ft 428 kts 259°
2026-04-14 15:34 59.51965 9.00298 38281 ft 428 kts 259°
2026-04-14 15:35 59.51037 8.88707 38049 ft 429 kts 259°
2026-04-14 15:35 59.50570 8.82906 37781 ft 428 kts 259°
2026-04-14 15:35 59.50103 8.77122 37514 ft 427 kts 259°
2026-04-14 15:36 59.49636 8.71369 37052 ft 424 kts 259°
2026-04-14 15:36 59.49167 8.65639 36541 ft 424 kts 258°
2026-04-14 15:36 59.48694 8.59918 36030 ft 424 kts 258°
2026-04-14 15:36 59.48220 8.54198 35481 ft 424 kts 258°
2026-04-14 15:37 59.47744 8.48459 34939 ft 425 kts 258°
2026-04-14 15:37 59.47265 8.42714 34403 ft 427 kts 258°
2026-04-14 15:37 59.46781 8.36947 33789 ft 427 kts 258°
2026-04-14 15:37 59.46295 8.31202 33234 ft 425 kts 257°
2026-04-14 15:38 59.45806 8.25469 32698 ft 423 kts 256°
2026-04-14 15:38 59.45320 8.19799 32158 ft 421 kts 256°
2026-04-14 15:38 59.44832 8.14132 31636 ft 419 kts 255°
2026-04-14 15:38 59.44343 8.08500 31106 ft 418 kts 254°
2026-04-14 15:39 59.43851 8.02878 30576 ft 416 kts 253°
2026-04-14 15:39 59.43361 7.97281 30009 ft 414 kts 253°
2026-04-14 15:39 59.42876 7.91735 29497 ft 410 kts 253°
2026-04-14 15:39 59.42398 7.86248 28997 ft 406 kts 253°
2026-04-14 15:40 59.41924 7.80806 28519 ft 402 kts 252°
2026-04-14 15:40 59.41450 7.75422 28059 ft 400 kts 253°
2026-04-14 15:40 59.40972 7.70059 27583 ft 397 kts 253°
2026-04-14 15:40 59.40490 7.64723 27129 ft 396 kts 253°
2026-04-14 15:41 59.40004 7.59412 26677 ft 396 kts 252°
2026-04-14 15:41 59.39519 7.54104 26236 ft 394 kts 252°
2026-04-14 15:41 59.39038 7.48834 25761 ft 392 kts 252°
2026-04-14 15:41 59.38557 7.43576 25301 ft 391 kts 253°
2026-04-14 15:42 59.38076 7.38335 24801 ft 390 kts 252°
2026-04-14 15:42 59.37592 7.33102 24314 ft 390 kts 252°
2026-04-14 15:42 59.37102 7.27853 23806 ft 391 kts 252°
2026-04-14 15:42 59.36607 7.22603 23214 ft 391 kts 252°
2026-04-14 15:43 59.36115 7.17369 22715 ft 390 kts 252°
2026-04-14 15:43 59.35627 7.12150 22205 ft 389 kts 252°
2026-04-14 15:43 59.35138 7.06958 21763 ft 385 kts 254°
2026-04-14 15:43 59.34654 7.01842 21243 ft 382 kts 254°
2026-04-14 15:44 59.34170 6.96762 20800 ft 377 kts 254°
2026-04-14 15:44 59.33687 6.91724 20307 ft 374 kts 255°
2026-04-14 15:44 59.33055 6.86831 19772 ft 367 kts 245°
2026-04-14 15:44 59.31956 6.82446 19297 ft 351 kts 233°
2026-04-14 15:45 59.30515 6.78744 18843 ft 334 kts 226°
2026-04-14 15:45 59.29030 6.75303 18440 ft 330 kts 226°
2026-04-14 15:45 59.27554 6.71883 17990 ft 327 kts 226°
2026-04-14 15:45 59.26092 6.68507 17581 ft 323 kts 226°
2026-04-14 15:46 59.24644 6.65175 17182 ft 320 kts 226°
2026-04-14 15:46 59.23210 6.61877 16802 ft 317 kts 226°
2026-04-14 15:46 59.21793 6.58612 16411 ft 314 kts 226°
2026-04-14 15:46 59.20383 6.55373 16033 ft 312 kts 226°
2026-04-14 15:47 59.18984 6.52165 15663 ft 309 kts 226°
2026-04-14 15:47 59.17594 6.48989 15291 ft 307 kts 226°
2026-04-14 15:47 59.16210 6.45831 14922 ft 306 kts 226°
2026-04-14 15:47 59.14831 6.42691 14552 ft 304 kts 227°
2026-04-14 15:48 59.13313 6.39870 14179 ft 300 kts 216°
2026-04-14 15:48 59.11535 6.37749 13884 ft 302 kts 205°
2026-04-14 15:48 59.09616 6.36042 13587 ft 304 kts 204°
2026-04-14 15:48 59.07696 6.34322 13299 ft 304 kts 205°
2026-04-14 15:49 59.05787 6.32601 13022 ft 302 kts 205°
2026-04-14 15:49 59.03883 6.30884 12739 ft 301 kts 205°
2026-04-14 15:49 59.01986 6.29176 12460 ft 300 kts 204°
2026-04-14 15:49 59.00085 6.27476 12179 ft 300 kts 204°
2026-04-14 15:50 58.98193 6.25789 11900 ft 298 kts 204°
2026-04-14 15:50 58.96310 6.24114 11630 ft 297 kts 204°
2026-04-14 15:50 58.94435 6.22450 11358 ft 296 kts 204°
2026-04-14 15:50 58.92559 6.20785 11074 ft 296 kts 204°
2026-04-14 15:51 58.90691 6.19127 10800 ft 295 kts 204°
2026-04-14 15:51 58.88839 6.17481 10547 ft 289 kts 204°
2026-04-14 15:51 58.87024 6.15866 10245 ft 285 kts 206°
2026-04-14 15:51 58.85234 6.14280 9984 ft 282 kts 206°
2026-04-14 15:52 58.83454 6.12709 9708 ft 279 kts 206°
2026-04-14 15:52 58.81733 6.11196 9522 ft 262 kts 206°
2026-04-14 15:52 58.80117 6.09774 9291 ft 251 kts 205°
2026-04-14 15:52 58.78543 6.08385 9132 ft 247 kts 205°
2026-04-14 15:53 58.76913 6.07393 8997 ft 247 kts 189°
2026-04-14 15:53 58.75204 6.07349 8843 ft 247 kts 172°
2026-04-14 15:53 58.73521 6.07962 8685 ft 246 kts 169°
2026-04-14 15:53 58.71843 6.08557 8479 ft 244 kts 172°
2026-04-14 15:54 58.68488 6.08003 8049 ft 242 kts 189°
2026-04-14 15:54 58.66832 6.07471 7831 ft 241 kts 188°
2026-04-14 15:54 58.65207 6.06709 7613 ft 241 kts 200°
2026-04-14 15:55 58.63721 6.05226 7398 ft 241 kts 208°
2026-04-14 15:55 58.62263 6.03645 7183 ft 241 kts 208°
2026-04-14 15:55 58.60815 6.02031 6960 ft 241 kts 213°
2026-04-14 15:55 58.59577 5.99872 6748 ft 242 kts 227°
2026-04-14 15:56 58.58485 5.97425 6533 ft 242 kts 227°
2026-04-14 15:56 58.57390 5.94986 6305 ft 241 kts 227°
2026-04-14 15:56 58.56461 5.92319 6082 ft 242 kts 243°
2026-04-14 15:56 58.55876 5.89292 5813 ft 242 kts 250°
2026-04-14 15:57 58.55643 5.86118 5537 ft 244 kts 275°
2026-04-14 15:57 58.56198 5.83078 5270 ft 245 kts 303°
2026-04-14 15:57 58.57434 5.80883 5040 ft 244 kts 333°
2026-04-14 15:57 58.59040 5.79984 4810 ft 240 kts 355°
2026-04-14 15:58 58.60696 5.79562 4557 ft 240 kts 355°
2026-04-14 15:58 58.62369 5.79131 4322 ft 239 kts 355°
2026-04-14 15:58 58.64011 5.78705 4087 ft 239 kts 355°
2026-04-14 15:58 58.65655 5.78276 3856 ft 238 kts 356°
2026-04-14 15:59 58.67295 5.77847 3624 ft 237 kts 356°
2026-04-14 15:59 58.68921 5.77370 3385 ft 237 kts 350°
2026-04-14 15:59 58.70387 5.75990 3159 ft 241 kts 323°
2026-04-14 15:59 58.71441 5.73528 2990 ft 231 kts 297°
2026-04-14 16:00 58.71984 5.70732 2922 ft 218 kts 289°
2026-04-14 16:00 58.72533 5.68123 2852 ft 208 kts 301°
2026-04-14 16:00 58.73444 5.66017 2729 ft 199 kts 323°
2026-04-14 16:00 58.74587 5.64688 2546 ft 193 kts 342°
2026-04-14 16:01 58.75871 5.64141 2333 ft 187 kts
2026-04-14 16:01 58.77151 5.64102 2097 ft 183 kts
2026-04-14 16:01 58.78412 5.64061 1819 ft 173 kts
2026-04-14 16:01 58.79571 5.64024 1585 ft 161 kts
2026-04-14 16:02 58.80658 5.63992 1368 ft 152 kts
2026-04-14 16:02 58.81685 5.63961 1157 ft 143 kts
2026-04-14 16:02 58.82651 5.63932 958 ft 135 kts
2026-04-14 16:02 58.83575 5.63904 768 ft 131 kts
2026-04-14 16:03 58.84475 5.63877 584 ft 128 kts
2026-04-14 16:03 58.85354 5.63852 417 ft 126 kts 360°
2026-04-14 16:03 58.86225 5.63826 253 ft 124 kts 359°
2026-04-14 16:03 58.87087 5.63807 80 ft 123 kts 359°
2026-04-14 16:04 58.87886 5.63779 33 ft 100 kts 358°
2026-04-14 16:04 58.88420 5.63761 30 ft 61 kts 359°
2026-04-14 16:04 58.88665 5.63754 28 ft 13 kts 357°
2026-04-14 16:04 58.88710 5.63610 28 ft 15 kts 268°
2026-04-14 16:05 58.88708 5.63504 32 ft 0 kts 268°
2026-04-14 16:07 58.88707 5.63474 32 ft 6 kts 265°
2026-04-14 16:07 58.88671 5.63418 32 ft 9 kts 184°
2026-04-14 16:07 58.88588 5.63420 31 ft 15 kts 178°
2026-04-14 16:08 58.88473 5.63424 31 ft 19 kts 179°
2026-04-14 16:08 58.88334 5.63428 31 ft 17 kts 179°
2026-04-14 16:08 58.88275 5.63353 32 ft 11 kts 253°
2026-04-14 16:08 58.88251 5.63183 28 ft 11 kts 255°
2026-04-14 16:09 58.88241 5.63109 29 ft 2 kts 255°
2026-04-14 16:09 58.88239 5.63097 28 ft 0 kts 255°